DW9408 Weather Reports


Display with metric or nautical units.
time (UTC)temp
F
wind
direction
speed
MPH
gust
MPH
rain 1hr
in
rain 24hr
in
rain mn
in
humidity
%
barometer
mb
20260510214527 82 196 1.0 6.0 0.00 0.00 0.00 42 1014.4
20260510214022 82 219 1.0 5.0 0.00 0.00 0.00 38 1014.4
20260510213515 82 172 1.0 5.0 0.00 0.00 0.00 39 1014.3
20260510213009 82 242 1.0 5.0 0.00 0.00 0.00 43 1014.2
20260510212504 82 242 1.0 5.0 0.00 0.00 0.00 39 1014.3
20260510211957 82 227 1.0 7.0 0.00 0.00 0.00 38 1014.2
20260510211452 82 227 1.0 7.0 0.00 0.00 0.00 39 1014.1
20260510210945 82 224 0.0 1.0 0.00 0.00 0.00 39 1014.2
20260510210440 82 224 0.0 3.0 0.00 0.00 0.00 41 1014.1
20260510205933 82 224 0.0 3.0 0.00 0.00 0.00 38 1014.3
20260510205427 82 224 1.0 5.0 0.00 0.00 0.00 35 1014.2
20260510204922 82 224 1.0 6.0 0.00 0.00 0.00 37 1014.2
20260510204419 82 209 1.0 6.0 0.00 0.00 0.00 37 1014.2
20260510203919 82 238 1.0 4.0 0.00 0.00 0.00 36 1014.3
20260510203420 82 237 1.0 4.0 0.00 0.00 0.00 39 1014.5
20260510202921 82 235 0.0 4.0 0.00 0.00 0.00 41 1014.6
20260510202418 82 213 1.0 5.0 0.00 0.00 0.00 36 1014.6
20260510201920 81 213 1.0 7.0 0.00 0.00 0.00 36 1014.6
20260510201419 81 234 2.0 7.0 0.00 0.00 0.00 35 1014.5
20260510200916 82 261 1.0 6.0 0.00 0.00 0.00 37 1014.5
20260510200416 82 259 1.0 4.0 0.00 0.00 0.00 45 1014.5
20260510195917 81 205 2.0 9.0 0.00 0.00 0.00 39 1014.5
20260510195417 81 205 2.0 9.0 0.00 0.00 0.00 36 1014.6
20260510194914 81 158 0.0 6.0 0.00 0.00 0.00 36 1014.7
20260510194647 81 88 0.0 4.0 0.00 0.00 0.00 38 1014.8
20260510193913 81 196 1.0 5.0 0.00 0.00 0.00 37 1014.8
20260510193410 81 245 2.0 6.0 0.00 0.00 0.00 37 1014.9
20260510192907 81 225 2.0 6.0 0.00 0.00 0.00 40 1014.9
20260510192407 81 225 2.0 6.0 0.00 0.00 0.00 37 1014.9
20260510191910 81 215 1.0 6.0 0.00 0.00 0.00 37 1014.9
20260510191406 81 212 1.0 5.0 0.00 0.00 0.00 36 1015.1
20260510190905 81 184 1.0 5.0 0.00 0.00 0.00 36 1015.1
20260510190407 81 275 0.0 1.0 0.00 0.00 0.00 42 1015.2
20260510185906 81 30 0.0 2.0 0.00 0.00 0.00 38 1015.2
20260510185407 80 75 0.0 5.0 0.00 0.00 0.00 35 1015.1
20260510184906 80 27 1.0 8.0 0.00 0.00 0.00 40 1015.2
20260510184407 80 14 1.0 8.0 0.00 0.00 0.00 35 1015.2
20260510183905 80 13 1.0 6.0 0.00 0.00 0.00 39 1015.2
20260510183407 80 0 1.0 6.0 0.00 0.00 0.00 38 1015.3
20260510182906 80 335 0.0 5.0 0.00 0.00 0.00 34 1015.3
20260510182637 80 0 0.0 2.0 0.00 0.00 0.00 34 1015.3
20260510181907 80 341 0.0 3.0 0.00 0.00 0.00 43 1015.3
20260510181408 80 42 0.0 8.0 0.00 0.00 0.00 39 1015.3
20260510180906 80 9 0.0 8.0 0.00 0.00 0.00 37 1015.4
20260510180406 80 261 0.0 3.0 0.00 0.00 0.00 42 1015.4
20260510175905 80 219 0.0 3.0 0.00 0.00 0.00 39 1015.5
20260510175406 79 233 0.0 3.0 0.00 0.00 0.00 37 1015.5
20260510174904 79 169 0.0 4.0 0.00 0.00 0.00 45 1015.5
20260510174357 79 176 0.0 4.0 0.00 0.00 0.00 41 1015.5
20260510173852 78 158 1.0 6.0 0.00 0.00 0.00 37 1015.5
20260510173346 78 159 1.0 7.0 0.00 0.00 0.00 39 1015.6
20260510172840 79 164 0.0 6.0 0.00 0.00 0.00 43 1015.6
20260510172335 79 28 0.0 6.0 0.00 0.00 0.00 37 1015.7
20260510171828 79 28 1.0 7.0 0.00 0.00 0.00 33 1015.7
20260510171322 79 142 1.0 7.0 0.00 0.00 0.00 38 1015.8
20260510170816 79 22 0.0 7.0 0.00 0.00 0.00 38 1015.8
20260510170310 79 355 0.0 0.0 0.00 0.00 0.00 40 1015.8
20260510165804 78 355 0.0 3.0 0.00 0.00 0.00 39 1016.0
20260510165258 78 355 1.0 5.0 0.00 0.00 0.00 36 1016.1
20260510164752 78 9 1.0 5.0 0.00 0.00 0.00 45 1016.2
20260510164246 78 177 0.0 3.0 0.00 0.00 0.00 48 1016.1
20260510163740 78 12 0.0 5.0 0.00 0.00 0.00 51 1016.3
20260510163234 78 17 0.0 5.0 0.00 0.00 0.00 51 1016.3
20260510162727 77 305 1.0 6.0 0.00 0.00 0.00 51 1016.3
20260510162221 77 51 1.0 6.0 0.00 0.00 0.00 49 1016.3
20260510161716 77 346 0.0 5.0 0.00 0.00 0.00 47 1016.4
20260510161211 77 139 0.0 1.0 0.00 0.00 0.00 52 1016.4
20260510160704 77 138 0.0 6.0 0.00 0.00 0.00 53 1016.5
20260510160158 77 132 0.0 6.0 0.00 0.00 0.00 54 1016.4
20260510155652 77 149 0.0 2.0 0.00 0.00 0.00 52 1016.3
20260510155145 76 30 0.0 1.0 0.00 0.00 0.00 56 1016.4
20260510154639 76 30 0.0 3.0 0.00 0.00 0.00 53 1016.4
20260510154133 76 30 0.0 3.0 0.00 0.00 0.00 54 1016.4
20260510153628 76 136 0.0 0.0 0.00 0.00 0.00 60 1016.3
20260510153122 76 136 0.0 0.0 0.00 0.00 0.00 59 1016.4
20260510152616 75 136 0.0 3.0 0.00 0.00 0.00 58 1016.4
20260510152110 75 136 0.0 7.0 0.00 0.00 0.00 59 1016.4
20260510151604 74 146 0.0 7.0 0.00 0.00 0.00 59 1016.4
20260510151057 74 305 0.0 1.0 0.00 0.00 0.00 57 1016.3
20260510150552 74 0 0.0 1.0 0.00 0.00 0.00 58 1016.4
20260510150045 74 0 0.0 4.0 0.00 0.00 0.00 63 1016.3
20260510145540 74 5 0.0 4.0 0.00 0.00 0.00 62 1016.4
20260510145306 74 321 0.0 0.0 0.00 0.00 0.00 65 1016.3
20260510144528 74 321 0.0 2.0 0.00 0.00 0.00 63 1016.4
20260510144254 73 317 0.0 5.0 0.00 0.00 0.00 64 1016.3
20260510143516 73 13 0.0 5.0 0.00 0.00 0.00 62 1016.3
20260510143009 73 299 0.0 1.0 0.00 0.00 0.00 70 1016.3
20260510142736 72 355 0.0 1.0 0.00 0.00 0.00 67 1016.4
20260510141958 72 355 0.0 1.0 0.00 0.00 0.00 66 1016.4
20260510141452 71 355 0.0 3.0 0.00 0.00 0.00 72 1016.4
20260510140947 71 355 0.0 3.0 0.00 0.00 0.00 72 1016.4
20260510140439 71 22 0.0 3.0 0.00 0.00 0.00 74 1016.4
20260510135933 70 21 0.0 3.0 0.00 0.00 0.00 73 1016.4
20260510135428 70 24 0.0 2.0 0.00 0.00 0.00 77 1016.3
20260510135153 69 16 0.0 2.0 0.00 0.00 0.00 78 1016.3
20260510133910 68 58 0.0 0.0 0.00 0.00 0.00 82 1016.2
20260510133634 68 196 0.0 0.0 0.00 0.00 0.00 83 1016.1
20260510132859 67 175 0.0 0.0 0.00 0.00 0.00 85 1016.2
20260510132631 66 180 0.0 0.0 0.00 0.00 0.00 86 1016.1
20260510131900 65 181 0.0 0.0 0.00 0.00 0.00 90 1016.1
20260510131357 64 180 0.0 0.0 0.00 0.00 0.00 91 1016.1
20260510131130 64 180 0.0 0.0 0.00 0.00 0.00 95 1016.1
20260510130359 62 180 0.0 0.0 0.00 0.00 0.00 96 1016.1
20260510125854 62 180 0.0 0.0 0.00 0.00 0.00 98 1016.1
20260510125356 61 239 0.0 0.0 0.00 0.00 0.00 100 1016.0
20260510124855 60 239 0.0 0.0 0.00 0.00 0.00 100 1016.1
20260510124624 60 239 0.0 0.0 0.00 0.00 0.00 100 1016.0
20260510123851 59 239 0.0 0.0 0.00 0.00 0.00 100 1016.0
20260510123350 59 239 0.0 0.0 0.00 0.00 0.00 100 1016.0
20260510122847 58 239 0.0 0.0 0.00 0.00 0.00 100 1016.0
20260510122618 57 239 0.0 0.0 0.00 0.00 0.00 100 1015.8
20260510121843 56 239 0.0 0.0 0.00 0.00 0.00 100 1015.8
20260510121341 55 239 0.0 0.0 0.00 0.00 0.00 100 1015.7
20260510120842 53 239 0.0 0.0 0.00 0.00 0.00 100 1015.6
20260510120343 52 239 0.0 0.0 0.00 0.00 0.00 100 1015.6
20260510115839 51 239 0.0 0.0 0.00 0.00 0.00 100 1015.5
20260510115342 51 239 0.0 0.0 0.00 0.00 0.00 100 1015.4
20260510114832 51 239 0.0 0.0 0.00 0.00 0.00 100 1015.4
20260510114334 50 239 0.0 0.0 0.00 0.00 0.00 100 1015.3
20260510113833 50 239 0.0 0.0 0.00 0.00 0.00 99 1015.2
20260510113331 50 239 0.0 0.0 0.00 0.00 0.00 99 1015.1
20260510112832 50 239 0.0 0.0 0.00 0.00 0.00 99 1015.1
20260510112604 50 239 0.0 0.0 0.00 0.00 0.00 99 1015.0
20260510111830 49 239 0.0 0.0 0.00 0.00 0.00 99 1014.9
20260510111602 49 239 0.0 0.0 0.00 0.00 0.00 99 1014.9
20260510110831 49 239 0.0 0.0 0.00 0.00 0.00 99 1014.8
20260510110332 49 239 0.0 0.0 0.00 0.00 0.00 99 1014.7
20260510105828 49 239 0.0 0.0 0.00 0.00 0.00 99 1014.8
20260510105326 49 239 0.0 0.0 0.00 0.00 0.00 98 1014.8
20260510104826 49 239 0.0 0.0 0.00 0.00 0.00 98 1014.6
20260510104327 49 239 0.0 0.0 0.00 0.00 0.00 98 1014.6
20260510103328 50 239 0.0 0.0 0.00 0.00 0.00 98 1014.5
20260510102828 50 239 0.0 0.0 0.00 0.00 0.00 98 1014.4
20260510102326 50 239 0.0 0.0 0.00 0.00 0.00 98 1014.3
20260510101828 50 239 0.0 0.0 0.00 0.00 0.00 98 1014.2
20260510101321 50 239 0.0 0.0 0.00 0.00 0.00 98 1014.1
20260510101047 50 239 0.0 0.0 0.00 0.00 0.00 98 1014.0
20260510100308 50 239 0.0 0.0 0.00 0.00 0.00 98 1013.9
20260510095803 51 239 0.0 0.0 0.00 0.00 0.00 98 1013.8
20260510095257 51 239 0.0 0.0 0.00 0.00 0.00 98 1013.8
20260510094751 51 239 0.0 0.0 0.00 0.00 0.00 98 1013.7
20260510094516 51 239 0.0 0.0 0.00 0.00 0.00 98 1013.7
20260510093739 51 239 0.0 0.0 0.00 0.00 0.00 98 1013.7
20260510093233 52 239 0.0 0.0 0.00 0.00 0.00 98 1013.6
20260510092727 52 239 0.0 0.0 0.00 0.00 0.00 98 1013.5
20260510092221 52 239 0.0 0.0 0.00 0.00 0.00 98 1013.4
20260510091715 52 239 0.0 0.0 0.00 0.00 0.00 98 1013.4
20260510091208 52 239 0.0 0.0 0.00 0.00 0.00 98 1013.4
20260510090704 52 239 0.0 0.0 0.00 0.00 0.00 99 1013.3
20260510090157 52 239 0.0 0.0 0.00 0.00 0.00 98 1013.3
20260510085651 52 239 0.0 0.0 0.00 0.00 0.00 98 1013.1
20260510085416 53 239 0.0 0.0 0.00 0.00 0.00 98 1013.2
20260510084639 53 239 0.0 0.0 0.00 0.00 0.00 98 1013.1
20260510084133 53 239 0.0 0.0 0.00 0.00 0.00 98 1013.0
20260510083627 53 239 0.0 0.0 0.00 0.00 0.00 98 1013.0
20260510083121 53 239 0.0 0.0 0.00 0.00 0.00 98 1012.9
20260510082614 53 239 0.0 0.0 0.00 0.00 0.00 97 1012.7
20260510082339 54 239 0.0 0.0 0.00 0.00 0.00 98 1012.8
20260510081835 54 239 0.0 0.0 0.00 0.00 0.00 98 1012.8
20260510081057 54 239 0.0 0.0 0.00 0.00 0.00 98 1012.7
20260510080552 54 239 0.0 0.0 0.00 0.00 0.00 98 1012.5
20260510080045 54 239 0.0 0.0 0.00 0.00 0.00 98 1012.5
20260510075810 54 239 0.0 0.0 0.00 0.00 0.00 98 1012.4
20260510075033 55 239 0.0 0.0 0.00 0.00 0.00 98 1012.3
20260510074527 55 239 0.0 0.0 0.00 0.00 0.00 99 1012.4
20260510074021 55 239 0.0 0.0 0.00 0.00 0.00 98 1012.5
20260510073515 55 239 0.0 0.0 0.00 0.00 0.00 98 1012.4
20260510073008 55 239 0.0 0.0 0.00 0.00 0.00 98 1012.4
20260510072733 55 239 0.0 0.0 0.00 0.00 0.00 98 1012.3
20260510071956 55 239 0.0 0.0 0.00 0.00 0.00 98 1012.3
20260510071450 55 239 0.0 0.0 0.00 0.00 0.00 98 1012.3
20260510071217 55 239 0.0 0.0 0.00 0.00 0.00 98 1012.3
20260510070438 56 239 0.0 0.0 0.00 0.00 0.00 98 1012.2
20260510070206 56 239 0.0 0.0 0.00 0.00 0.00 98 1012.3
20260510065427 56 239 0.0 0.0 0.00 0.00 0.00 98 1012.3
20260510064415 56 239 0.0 0.0 0.00 0.00 0.00 97 1012.3
20260510063909 56 239 0.0 0.0 0.00 0.00 0.00 97 1012.3
20260510062857 56 239 0.0 0.0 0.00 0.00 0.00 98 1012.3
20260510062350 57 239 0.0 0.0 0.00 0.00 0.00 97 1012.3
20260510061845 57 239 0.0 0.0 0.00 0.00 0.00 97 1012.3
20260510061339 57 239 0.0 0.0 0.00 0.00 0.00 97 1012.4
20260510060833 58 239 0.0 0.0 0.00 0.00 0.00 98 1012.4
20260510060327 58 239 0.0 0.0 0.00 0.00 0.00 98 1012.4
20260510055820 58 239 0.0 0.0 0.00 0.00 0.00 98 1012.5
20260510055321 58 239 0.0 0.0 0.00 0.00 0.00 98 1012.4
20260510054818 58 239 0.0 0.0 0.00 0.00 0.00 98 1012.4
20260510054316 58 239 0.0 0.0 0.00 0.00 0.00 98 1012.5
20260510053815 58 239 0.0 0.0 0.00 0.00 0.00 98 1012.4
20260510053311 58 239 0.0 0.0 0.00 0.00 0.00 97 1012.4
20260510052811 58 239 0.0 0.0 0.00 0.00 0.00 97 1012.4
20260510052543 58 239 0.0 0.0 0.00 0.00 0.00 97 1012.3
20260510051813 58 239 0.0 0.0 0.00 0.00 0.00 97 1012.3
20260510051309 59 239 0.0 0.0 0.00 0.00 0.00 97 1012.3
20260510050806 59 239 0.0 0.0 0.00 0.00 0.00 97 1012.3
20260510050304 59 239 0.0 0.0 0.00 0.00 0.00 96 1012.4
20260510050035 59 239 0.0 0.0 0.00 0.00 0.00 96 1012.4
20260510045306 59 239 0.0 0.0 0.00 0.00 0.00 96 1012.4
20260510044803 59 239 0.0 0.0 0.00 0.00 0.00 96 1012.4
20260510044259 60 239 0.0 0.0 0.00 0.00 0.00 96 1012.4
20260510043759 60 239 0.0 0.0 0.00 0.00 0.00 95 1012.5
20260510043301 60 239 0.0 0.0 0.00 0.00 0.00 96 1012.4
20260510042801 60 239 0.0 0.0 0.00 0.00 0.00 96 1012.3
20260510042259 60 239 0.0 0.0 0.00 0.00 0.00 95 1012.3
20260510041758 60 239 0.0 0.0 0.00 0.00 0.00 94 1012.3
20260510041256 61 239 0.0 0.0 0.00 0.00 0.00 93 1012.5
20260510040757 61 239 0.0 0.0 0.00 0.00 0.00 93 1012.4
20260510040256 62 239 0.0 0.0 0.00 0.00 0.00 92 1012.3
20260510035752 62 239 0.0 0.0 0.00 0.00 0.00 92 1012.2
20260510035253 63 239 0.0 0.0 0.00 0.00 0.00 93 1012.4
20260510035025 63 239 0.0 0.0 0.00 0.00 0.00 93 1012.4
20260510034254 63 239 0.0 0.0 0.00 0.00 0.00 93 1012.4
20260510033753 63 239 0.0 0.0 0.00 0.00 0.00 92 1012.3
20260510033254 63 239 0.0 0.0 0.00 0.00 0.00 91 1012.4
20260510032751 64 239 0.0 0.0 0.00 0.00 0.00 91 1012.4
20260510032248 64 239 0.0 0.0 0.00 0.00 0.00 90 1012.5
20260510031749 64 239 0.0 0.0 0.00 0.00 0.00 89 1012.4
20260510031250 65 239 0.0 0.0 0.00 0.00 0.00 88 1012.3
20260510030750 65 239 0.0 0.0 0.00 0.00 0.00 89 1012.5
20260510030251 65 239 0.0 0.0 0.00 0.00 0.00 88 1012.5
20260510025752 65 227 0.0 0.0 0.00 0.00 0.00 88 1012.4
20260510025256 66 227 0.0 1.0 0.00 0.00 0.00 88 1012.4
20260510024752 66 226 0.0 1.0 0.00 0.00 0.00 88 1012.4
20260510024245 66 225 0.0 1.0 0.00 0.00 0.00 87 1012.2
20260510023742 66 225 0.0 1.0 0.00 0.00 0.00 88 1012.3
20260510023233 66 205 0.0 0.0 0.00 0.00 0.00 88 1012.2
20260510022727 66 205 0.0 2.0 0.00 0.00 0.00 88 1012.1
20260510022221 66 205 0.0 4.0 0.00 0.00 0.00 88 1012.2
20260510021715 66 208 0.0 4.0 0.00 0.00 0.00 88 1012.1
20260510021209 66 233 0.0 1.0 0.00 0.00 0.00 88 1012.1
20260510020704 66 237 0.0 1.0 0.00 0.00 0.00 87 1012.1
20260510020157 66 237 0.0 4.0 0.00 0.00 0.00 87 1011.9
20260510015652 66 190 0.0 4.0 0.00 0.00 0.00 87 1011.8
20260510015145 66 223 0.0 0.0 0.00 0.00 0.00 87 1011.7
20260510014639 66 223 0.0 3.0 0.00 0.00 0.00 87 1011.5
20260510014133 66 225 0.0 3.0 0.00 0.00 0.00 87 1011.5
20260510013628 66 157 0.0 3.0 0.00 0.00 0.00 87 1011.4
20260510013121 66 198 0.0 2.0 0.00 0.00 0.00 87 1011.4
20260510012615 66 226 0.0 0.0 0.00 0.00 0.00 87 1011.4
20260510012109 66 226 0.0 2.0 0.00 0.00 0.00 87 1011.4
20260510011603 66 226 0.0 2.0 0.00 0.00 0.00 87 1011.4
20260510011058 66 192 0.0 0.0 0.00 0.00 0.00 87 1011.2
20260510010551 66 192 0.0 2.0 0.00 0.00 0.00 87 1011.1
20260510010317 67 193 0.0 2.0 0.00 0.00 0.00 86 1011.1
20260510005034 67 194 0.0 4.0 0.00 0.00 0.00 85 1011.1
20260510004527 67 206 0.0 0.0 0.00 0.00 0.00 85 1010.9
20260510004021 67 206 0.0 0.0 0.00 0.00 0.00 84 1010.8
20260510003516 68 206 0.0 0.0 0.00 0.00 0.00 84 1010.8
20260510003011 68 206 0.0 0.0 0.00 0.00 0.00 82 1010.8
20260510002504 68 206 0.0 0.0 0.00 0.00 0.00 82 1010.7
20260510001957 69 207 0.0 0.0 0.00 0.00 0.00 82 1010.5
20260510001451 69 206 0.0 0.0 0.00 0.00 0.00 82 1010.5
20260510000945 69 206 0.0 0.0 0.00 0.00 0.00 81 1010.4
20260510000441 69 206 0.0 5.0 0.00 0.00 0.00 81 1010.3
20260509235934 69 206 1.0 5.0 0.00 0.00 0.00 80 1010.3
20260509235428 70 205 1.0 4.0 0.00 0.00 0.00 80 1010.2
20260509234921 70 219 1.0 5.0 0.00 0.00 0.00 79 1010.1
20260509234415 70 189 1.0 6.0 0.00 0.00 0.00 79 1010.0
20260509234140 70 221 1.0 6.0 0.00 0.00 0.00 79 1010.0
20260509233403 71 202 1.0 4.0 0.00 0.00 0.00 78 1009.9
20260509232857 71 185 0.0 5.0 0.00 0.00 0.00 78 1009.9
20260509232351 71 190 1.0 6.0 0.00 0.00 0.00 78 1009.9
20260509231845 71 215 1.0 6.0 0.00 0.00 0.00 78 1009.9
20260509231339 71 223 1.0 5.0 0.00 0.00 0.00 78 1009.9
20260509230833 71 227 2.0 9.0 0.00 0.00 0.00 77 1009.7
20260509230328 71 197 2.0 9.0 0.00 0.00 0.00 76 1009.8
20260509225821 71 225 1.0 7.0 0.00 0.00 0.00 76 1009.8
20260509225316 71 180 0.0 5.0 0.00 0.00 0.00 76 1009.7
20260509225040 72 198 0.0 3.0 0.00 0.00 0.00 75 1009.6
20260509224304 72 205 1.0 7.0 0.00 0.00 0.00 75 1009.6
20260509223757 72 180 1.0 7.0 0.00 0.00 0.00 75 1009.6
20260509223251 72 213 2.0 9.0 0.00 0.00 0.00 74 1009.7
20260509223016 72 244 2.0 9.0 0.00 0.00 0.00 75 1009.7
20260509222239 73 232 1.0 7.0 0.00 0.00 0.00 76 1009.6
20260509221733 73 211 1.0 7.0 0.00 0.00 0.00 75 1009.7
20260509221228 72 261 1.0 7.0 0.00 0.00 0.00 74 1009.5
20260509220721 73 220 0.0 4.0 0.00 0.00 0.00 74 1009.3
20260509220221 73 227 1.0 10.0 0.00 0.00 0.00 74 1009.3
20260509215721 73 217 2.0 10.0 0.00 0.00 0.00 74 1009.4
20260509215219 73 209 1.0 7.0 0.00 0.00 0.00 75 1009.3
20260509214719 73 222 1.0 6.0 0.00 0.00 0.00 74 1009.3